Retour au catalogue

COSMOS 1717

ActifMilitaireLEO
NORAD 16450·PAYLOAD·🇷🇺 Russia

Lancé Jan 9, 1986 depuis Plesetsk Cosmodrome

Loading…

Prochains Passages (prochaines 24 heures)

TLE

FraisSource: Space-Track

Époque: Sep 14, 2026, 10:23 UTC

1 16450U 86002B   26257.43323667 -.00000034  00000-0 -13220-3 0  9998
2 16450  73.9871  65.8483 0024331 214.9487 170.2683 12.42994046845886

Suivez COSMOS 1717 en temps réel avec AllMySat

Download on the App Store